Location: Hawks Ness
(60.2333°N, 1.1667°W)
Time: 11:15:46
(UTC+00:00)

Cosmos 1025 Rocket - Pass Details

Date: 22 October 2019
Orbit: 595 x 617 km, 82.5° (Epoch: 19 November)

Event Time Altitude Azimuth Distance (km) Brightness Sun altitude
Exits shadow 05:31:12 17° 266° (W) 1,530 4.4 -11.7°
Maximum altitude 05:33:09 23° 303° (WNW) 1,292 4.2 -11.5°
Drops below altitude 10° 05:36:38 10° 357° (N) 1,958 5.6 -11.1°
Sets 05:39:15 0° 12° (NNE) 2,870 6.6 -10.7°
